Historyczne dane pomiarowe

Dodano dane terminowe – wersja testowa.

Dane z okresu 1951-2019

Wersja bazy: 1.34 [2019-03-16, lista zmian], aktualizacja planowana na 2019-04-15

Dane meteo z obszaru Polski uzyskane na podstawie danych udostępnionych przez Instytut Meteorologii i Gospodarki Wodnej – Państwowy Instytut Badawczy.

 

Wybierz Datę:    

       

TemperaturaWilgotnośćWiatrCiśnienieOpadyŚniegCzas trwania zjawisk
 Stacja t tx tn tng RH VA  wxwx mslp ppp RRR   cm mm wxwxwxwxwxwxwx
1956-11-09 -9.6 -4.0-14.5- 78.0- 3.3 0.3---- 0.0-- 8---------
1956-11-08 -8.1 -3.0-11.4- 85.0- 3.0 1.3---- 0.3-- 9---------
1956-11-07 -2.0 1.2 -4.0- 94.5- 8.0 8.3---- 2.1-- 9---------
1956-11-06 -0.5 1.2 -1.3- 94.0- 7.3 2.7---- 3.5------------
1956-11-05 0.0 0.9 -6.6- 93.5- 5.3 10.3---- 0.0------------
1956-11-04 -3.6 2.6 -6.0- 88.8- 2.7 1.0---- 0.0------------
1956-11-03 -1.0 1.5 -2.3- 95.5- 7.7 5.7---- 0.0------------
1956-11-02 1.0 6.3 -1.8- 74.3- 5.7 3.7---- 0.0------------
1956-11-01 -0.4 7.6-12.0- 74.8- 0.0 5.0---- 0.0------------
1956-10-31 -6.4 4.3 -8.8- 88.0- 5.0 2.0---- 0.0------------
1956-10-30 4.2 6.5 3.0- 83.0- 8.0 2.0---- 0.0------------
1956-10-29 4.4 8.6 3.1- 79.8- 7.7 2.3---- 4.3------------
1956-10-28 10.4 15.6 8.0- 73.0- 7.3 3.7---- 2.9------------
1956-10-27 10.0 17.0 1.0- 82.8- 6.3 1.3---- 0.0------------
1956-10-26 7.8 16.1 4.4- 83.5- 3.0 2.3---- 0.0------------
1956-10-25 12.2 16.0 1.5- 67.3- 0.0 4.3---- 0.0------------
1956-10-24 6.8 12.6 3.8- 93.3- 5.3 0.0---- 0.0------------
1956-10-23 10.8 16.8 6.4- 81.5- 0.7 1.3---- 0.0------------
1956-10-22 12.4 16.8 4.2- 79.8- 3.0 4.3---- 0.0------------
1956-10-21 9.8 14.6 7.1- 90.0- 5.3 1.0---- 1.7------------
1956-10-20 10.9 12.2 8.7- 77.5- 7.7 5.3---- 0.0------------
1956-10-19 10.3 11.6 9.2- 55.0- 7.7 7.3---- 0.0------------
1956-10-18 8.0 12.7 -1.4- 60.0- 4.0 4.7---- 0.0------------
1956-10-17 1.7 11.5 -4.2- 81.5- 0.0 1.3---- 0.0------------
1956-10-16 1.5 8.6 -2.8- 86.3- 3.3 1.0---- 0.0------------
1956-10-15 1.7 8.7 -2.4- 81.3- 1.7 2.0---- 0.0------------
1956-10-14 7.1 10.2 5.6- 62.3- 4.3 6.3---- 1.2------------
1956-10-13 8.2 9.9 5.5- 61.8- 7.0 5.7---- 0.0------------
1956-10-12 7.0 8.7 0.0- 62.8- 5.3 5.0---- 0.0------------
1956-10-11 1.4 7.1 -2.4- 81.5- 5.0 1.0---- 0.0------------
1956-10-10 4.0 6.0 -1.9- 70.5- 6.0 2.7---- 0.0------------
1956-10-09 1.0 10.0 -2.9- 88.0- 2.7 1.0---- 0.0------------
1956-10-08 2.4 9.5 -1.4- 86.3- 1.7 0.3---- 0.0------------
1956-10-07 4.2 7.9 2.1- 81.8- 3.0 5.0---- 2.9------------
1956-10-06 6.6 14.7 2.2- 85.8- 7.7 2.7---- 25.2------------
1956-10-05 11.0 14.2 9.4- 79.0- 5.3 2.7---- 2.1------------
1956-10-04 12.0 18.1 9.7- 85.3- 8.0 1.7---- 0.4------------
1956-10-03 18.0 22.3 15.8- 65.8- 3.0 5.0---- 0.0------------
1956-10-02 17.4 22.4 10.8- 73.5- 0.3 3.7---- 0.0------------
1956-10-01 16.2 22.0 7.4- 70.3- 1.0 1.7---- 0.0------------
1956-09-30 14.3 20.7 10.7- 84.8- 2.7 2.0---- 0.0------------
1956-09-29 15.8 18.0 10.2- 69.3- 5.7 5.0---- 0.0------------
1956-09-28 13.2 17.3 12.5- 84.3- 6.3 2.7---- 1.4------------
1956-09-27 17.0 21.1 12.4- 50.5- 3.7 4.3---- 0.2------------
1956-09-26 14.1 19.3 4.1- 45.5- 0.0 5.0---- 0.0------------
1956-09-25 10.9 18.1 0.1- 68.0- 0.7 4.0---- 0.0------------
1956-09-24 6.8 16.2 2.7- 84.3- 0.0 1.0---- 0.0------------
1956-09-23 9.1 18.2 1.8- 82.5- 0.3 1.0---- 0.0------------
1956-09-22 9.3 20.0 1.1- 82.0- 0.3 0.0---- 0.0------------
1956-09-21 10.8 17.5 7.2- 62.5- 0.3 5.3---- 0.0------------
1956-09-20 8.8 15.4 -2.0- 61.3- 2.7 1.7---- 0.0------------
1956-09-19 5.1 13.1 0.1- 82.0- 2.7 1.0---- 0.0------------
1956-09-18 5.1 8.3 3.3- 90.3- 5.0 1.3---- 0.0------------
1956-09-17 7.4 13.0 6.4- 90.8- 7.7 1.3---- 4.0------------
1956-09-16 12.3 17.0 6.6- 74.3- 5.3 2.3---- 0.0------------
1956-09-15 11.0 15.0 3.3- 73.0- 6.3 1.3---- 0.0------------
1956-09-14 8.2 10.5 6.2- 77.3- 7.7 7.3---- 0.0------------
1956-09-13 7.4 11.1 6.4- 84.5- 6.7 4.3---- 6.1------------
1956-09-12 11.0 15.5 9.5- 84.3- 7.3 2.7---- 12.3------------
1956-09-11 15.5 20.0 10.6- 81.0- 7.0 3.0---- 1.6------------
252.6 ms

 

Źródłem pochodzenia danych jest Instytut Meteorologii i Gospodarki Wodnej – Państwowy Instytut Badawczy. Dane Instytutu Meteorologii i Gospodarki Wodnej – Państwowego Instytutu Badawczego zostały przetworzone.

Dane źródłowe można odnaleźć na stronie https://dane.imgw.pl